sat.trackr.live / text

‹ back to catalog

STARLINK-11515 [DTC]

NORAD 62556 · 2025-006C

PAYLOAD ACTIVE UNKNOWN

§ Identity

Operator
Country
US
Launch date
2025-01-10
Launch site
AFETR
Launch vehicle
Mass (kg)
RCS (m²)

Purposes: comms

External: N2YO · Heavens-Above · Gunter

§ Orbital elements

Epoch: 2026-09-21T16:23:35.019744Z

Period
91.67 min
Inclination
43.0000°
Eccentricity
0.0001378
Mean motion
15.70889118 rev/d
Perigee alt
355.4 km
Apogee alt
357.3 km
Semi-major
6,734.5 km
B*
1.4847e-3
RAAN
38.8211°
Arg perigee
276.8144°
Mean anomaly
83.2567°
Rev number
9,742

§ Raw data

STARLINK-11515 [DTC]1 62556U 25006C   26264.68304421  .00194999  00000+0  14847-2 0  99912 62556  43.0000  38.8211 0001378 276.8144  83.2567 15.70889118 97428

JSON: /api/v1/satellites/62556 · /tle

For live sub-satellite position, see the globe view (requires WebGL).

§ Visibility from observer

Set your observer location to see the next 7 days of passes ≥ 10°. The values pass through the URL so the page stays shareable.

No JS? Fill the form by hand. The geolocation button needs JavaScript.